User: anonymous   Login
Location: Unspecified
(0.0000°N, 0.0000°E)
Time: 17:09:37
(UTC+01:00)
Language:

Tiangong 2 - Orbit

View from above orbital plane
View from above orbital plane
View from above satellite
View from above satellite

Ground track
Ground track

The orbit data is extracted from the following two-line orbital elements,

1 41765U 16057A   19081.51638505  .00003740  00000-0  47768-4 0  9994
2 41765  42.7841 123.7860 0007580  15.3076  97.3330 15.60988306143492
Epoch (UTC): 22 March 2019 12:23:35
Eccentricity: 0.0007580
inclination: 42.7841°
perigee height: 379 km
apogee height: 390 km
right ascension of ascending node: 123.7860°
argument of perigee: 15.3076°
revolutions per day: 15.60988306
mean anomaly at epoch: 97.3330°
orbit number at epoch: 14349

The dashed part of the orbit path shows where the satellite is in the earth's shadow,  

DLR